DEORBITSAIL
1 40719U 15032E 20015.98339139 .00000297 00000-0 49383-4 0 9994
2 40719 97.8877 268.2429 0016284 348.6751 11.4090 14.76889936243440
NUDT-PHONESAT
1 40900U 15049B 20016.79412466 .00001570 00000-0 68628-4 0 9997
2 40900 97.4346 29.1035 0013394 153.3658 19.7964 15.23511239239944
XW-2A
1 40903U 15049E 20016.83205456 .00001384 00000-0 33772-4 0 9999
2 40903 97.3109 65.5296 0015337 96.6222 19.8930 15.42528757242943
XW-2C
1 40906U 15049H 20016.83715741 .00000278 00000-0 17944-4 0 9999
2 40906 97.4727 20.4899 0014567 177.1630 259.2098 15.15894788239136
XW-2D
1 40907U 15049J 20016.78895505 .00000647 00000-0 36986-4 0 9998
2 40907 97.4714 20.1315 0014058 173.9706 271.7513 15.16107569239143
LILACSAT-2
1 40908U 15049K 20016.83382012 -.00000062 00000-0 21027-6 0 9993
2 40908 97.4854 18.7378 0015365 183.3570 261.2127 15.13933149238903
XW-2E
1 40909U 15049L 20016.84678449 .00000613 00000-0 33312-4 0 9996
2 40909 97.4618 23.3983 0013692 166.7609 314.5648 15.18139741239378
XW-2F
1 40910U 15049M 20016.80614438 .00000871 00000-0 46551-4 0 9997
2 40910 97.4652 22.4823 0014941 165.7573 272.1994 15.17652981239185
XW-2B
1 40911U 15049N 20016.83800093 .00000311 00000-0 19638-4 0 9990
2 40911 97.4733 20.8622 0013910 174.8493 306.1383 15.16033101239043
DCBB
1 40912U 15049P 20016.77687095 .00000750 00000-0 37945-4 0 9997
2 40912 97.4499 26.4231 0015553 146.2368 299.5512 15.20007364239529
TW-1C
1 40926U 15051B 20016.82084177 .00011365 00000-0 13921-3 0 9994
2 40926 97.1084 68.0047 0005228 311.7101 170.6920 15.60510326243180
TW-1A
1 40928U 15051D 20016.79891509 .00001994 00000-0 48922-4 0 9994
2 40928 97.1254 48.2841 0011692 32.2399 85.0519 15.41816286241846
IO-86
1 40931U 15052B 20015.55554689 .00000603 00000-0 -52684-5 0 9995
2 40931 5.9989 352.8787 0014085 259.9842 99.8649 14.76623612232477
LQSat
1 40958U 15057A 20016.42364651 .00000012 00000-0 94509-5 0 9999
2 40958 97.8747 84.6153 0016766 282.5056 77.4277 14.73104445229977
AO-85
1 40967U 15058D 20015.10630426 .00000098 00000-0 30212-4 0 9297
2 40967 64.7727 239.4467 0175716 131.7610 229.8669 14.76053931138791
ATHENOXAT-1
1 41168U 15077C 20016.54357707 .00001617 00000-0 49396-4 0 9997
2 41168 14.9885 103.0495 0011383 159.9175 200.1594 15.14041789226137
ChubuSat-2
1 41338U 16012B 20016.01076031 .00000252 00000-0 12831-4 0 9994
2 41338 31.0021 241.7386 0013625 35.9673 324.1878 15.00231695214674
ChubuSat-3
1 41339U 16012C 20016.75426068 .00000328 00000-0 18710-4 0 9991
2 41339 31.0115 234.8393 0013595 50.2229 309.9611 15.00402093214783
Horyu-4
1 41340U 16012D 20016.26235325 .00000356 00000-0 20313-4 0 9996
2 41340 031.0036 227.2877 0013711 068.1071 292.1021 15.01396593214835
OUFTI-1
1 41458U 16025C 20016.72945121 .00000512 00000-0 30094-4 0 9994
2 41458 98.0992 119.3906 0164881 4.4165 355.8470 15.06384717204480
e-st@r-II
1 41459U 16025D 20016.79893631 .00000937 00000-0 51556-4 0 9997
2 41459 98.0989 118.9932 0166222 5.9442 354.3703 15.05985727204464
AAUSAT4
1 41460U 16025E 20016.56256243 .00001194 00000-0 62991-4 0 9997
2 41460 98.0947 120.5663 0155341 357.0451 2.9851 15.08088357204591
LO-87
1 41557U 16033B 20016.77872694 .00000825 00000-0 33239-4 0 9993
2 41557 97.4100 108.0176 0012019 267.8317 92.1546 15.27665884202468
NuSat2
1 41558U 16033C 20016.80917834 .00000930 00000-0 35020-4 0 9991
2 41558 97.4139 109.8011 0011069 266.2132 93.7843 15.29607621202554
Lapan A3
1 41603U 16040E 20016.85006355 .00000080 00000-0 68784-5 0 9992
2 41603 97.3324 74.9726 0014163 24.2040 35.6734 15.19786724197966
Swayam
1 41607U 16040J 20016.15237144 .00000975 00000-0 43296-4 0 9994
2 41607 097.3400 078.9958 0013479 014.6368 345.5257 15.23815402198078
Pratham
1 41783U 16059A 20016.20728788 .00000024 00000-0 13717-4 0 9994
2 41783 098.0403 075.7946 0034840 079.3599 281.1524 14.63031988176479
AlSat 1N
1 41789U 16059G 20016.83500077 .00000088 00000-0 25509-4 0 9990
2 41789 98.0427 78.8742 0029600 66.2841 294.1451 14.64290660176694
ScatSat
1 41790U 16059H 20016.78213246 .00000019 00000-0 15688-4 0 9996
2 41790 98.1829 61.4415 0006610 41.1649 319.0035 14.50927419175083
TY-1
1 41844U 16066D 20016.85561638 .00000636 00000-0 28648-4 0 9998
2 41844 97.4040 26.7483 0015490 155.3074 325.0448 15.24597065177017
Pegasus-1
1 41846U 16066F 20016.11233786 .00000148 00000-0 33587-4 0 9995
2 41846 098.6853 064.3861 0366514 329.8249 028.2268 14.37686282166934
CAS-2T
1 41847U 16066G 20016.82959414 .00000003 00000-0 11661-4 0 9996
2 41847 98.6784 65.6211 0365077 323.7359 33.9572 14.38034042167483
EO-88
1 42017U 17008BX 20016.46439841 .00001063 00000-0 44066-4 0 9992
2 42017 97.3801 86.1460 0007412 132.8616 227.3246 15.26062794162210
nSIGHT1
1 42726U 98067MF 20016.49649471 .00051802 00000-0 22055-3 0 9997
2 42726 51.6312 296.9855 0001151 222.9901 137.1012 15.84710589151233
CAS-4B
1 42759U 17034B 20016.73508990 .00000038 00000-0 15811-4 0 9993
2 42759 43.0165 146.0706 0010391 153.5881 345.0386 15.09721675142882
CAS-4A
1 42761U 17034D 20016.75452936 .00000142 00000-0 22107-4 0 9998
2 42761 43.0169 145.3638 0010768 155.2116 349.1676 15.09800525142882
UCLSat
1 42765U 17036A 20016.10669429 .00000849 00000-0 38799-4 0 9998
2 42765 97.3242 74.3036 0010824 198.1653 161.9199 15.23173962142646
NIUSat
1 42766U 17036B 20016.56958710 .00000611 00000-0 30184-4 0 9990
2 42766 97.3236 72.6371 0015248 191.1212 168.9689 15.21447827142443
LituanicaSAT 2
1 42768U 17036D 20016.78370666 .00001404 00000-0 61629-4 0 9993
2 42768 97.3287 74.7336 0014704 187.7411 172.3602 15.23493840142591
Aalto 1
1 42775U 17036L 20016.17331756 .00000512 00000-0 25634-4 0 9996
2 42775 097.3220 072.6010 0013559 191.3639 168.7293 15.21617155142367
URSA MAIOR
1 42776U 17036M 20016.37708221 .00000569 00000-0 28070-4 0 9993
2 42776 97.3231 73.0213 0013403 190.4008 169.6953 15.21776375142406
Max Valier Sat
1 42778U 17036P 20016.59899566 .00000592 00000-0 28589-4 0 9993
2 42778 97.3279 74.2944 0011979 192.4206 167.6737 15.22352395142470
Pegasus
1 42784U 17036V 20016.43036519 .00000773 00000-0 35890-4 0 9998
2 42784 97.3246 74.3675 0011402 198.2376 161.8454 15.22890534142481
NUDATSat
1 42787U 17036Y 20016.21687990 .00001383 00000-0 59879-4 0 9993
2 42787 097.3287 075.2255 0009882 199.3264 160.7604 15.24044592142358
SUCHAI 1
1 42788U 17036Z 20016.11256652 .00000930 00000-0 42002-4 0 9997
2 42788 97.3253 74.5126 0010972 197.6538 162.4320 15.23377557142531
SKCUBE
1 42789U 17036AA 20016.20980427 .00000861 00000-0 39249-4 0 9994
2 42789 097.3248 074.5032 0010854 197.5940 162.4922 15.23246808142461
VZLUSAT 1
1 42790U 17036AB 20016.20476349 .00001168 00000-0 51004-4 0 9993
2 42790 097.3268 075.2090 0010454 195.5854 164.5063 15.24033451142508
VENTA 1
1 42791U 17036AC 20016.18288965 .00000799 00000-0 36613-4 0 9994
2 42791 097.3246 074.5256 0010502 197.8827 162.2042 15.23244661142452
Robusta 1B
1 42792U 17036AD 20016.64197153 .00000858 00000-0 38895-4 0 9994
2 42792 97.3250 75.1303 0010468 196.1234 163.9672 15.23427615142553
D-SAT
1 42794U 17036AF 20016.05197356 .00000320 00000-0 32880-4 0 9998
2 42794 97.5137 56.1389 0126993 156.3248 204.3886 14.91202934139831
TechnoSat
1 42829U 17042E 20016.81502583 .00000086 00000-0 14004-4 0 9997
2 42829 97.5407 265.5551 0015745 75.1378 285.1583 14.91045972136544
QIKCOM-1
1 42983U 98067NF 20016.55298776 .00002939 00000-0 41469-4 0 9995
2 42983 51.6400 355.5455 0003631 191.4903 168.6008 15.60301896126407
